Location: Canyon Rim
(40.8777°N, 111.8641°W)
Time: 20:44:14
(UTC+00:00)

SO-50 - Visible Passes

Search period start: 21 June 2021 00:00
Search period end: 01 July 2021 00:00
Orbit: 614 x 671 km, 64.6° (Epoch: 21 June)

Date Brightness Start Highest point End Pass type
(mag) Time Alt. Az. Time Alt. Az. Time Alt. Az.
22 Jun ? 10:58:28 10° ESE 10:59:30 11° ESE 11:00:34 10° E visible
23 Jun ? 11:20:12 10° S 11:23:57 27° ESE 11:27:46 10° NE visible
25 Jun ? 10:30:26 10° SSE 10:33:29 18° ESE 10:36:33 10° ENE visible
26 Jun ? 10:53:49 10° S 10:58:03 45° ESE 11:02:20 10° NE visible
27 Jun ? 09:41:26 10° SE 09:43:03 12° ESE 09:44:40 10° E visible
27 Jun ? 11:18:24 10° SW 11:22:51 71° NW 11:27:21 10° NNE visible
28 Jun ? 10:04:50 16° SSE 10:07:31 30° ESE 10:11:25 10° NE visible
29 Jun ? 10:29:13 21° SSW 10:32:12 76° ESE 10:36:43 10° NE visible
30 Jun ? 09:15:57 18° SE 09:17:02 20° ESE 09:20:16 10° ENE visible
30 Jun ? 10:53:34 14° WSW 10:57:08 44° NW 11:01:28 10° NNE visible
